When you browse on this site, cookies collect data to enhance your experience and personalize the content and advertising you see.
Visit our Privacy Policy to learn more. By continuing to use the site, you agree to this use of cookies and data.
  • In United Kingdom
  • List of Countries
  • For 7 days
  • Water Temperature
  • Satellite Maps
  • Weather Map
  • Weather Widgets
  • user-avatar
    Login

    Hourly Weather Bogatynia

    Today, 20 January, Sunday

    Time Temperature Precipitation Wind Pressure Humidity
    00:00 -3°C° 0 mm 1 mps 741 mmHg 64%
    01:00 -3°C° 0 mm 1 mps 741 mmHg 65%
    02:00 -3°C° 0 mm 1 mps 741 mmHg 68%
    03:00 -3°C° 0 mm 1 mps 741 mmHg 72%
    04:00 -3°C° 0 mm 1 mps 740 mmHg 75%
    05:00 -3°C° 0 mm 1 mps 740 mmHg 77%
    06:00 -3°C° 0 mm 1 mps 740 mmHg 79%
    07:00 -4°C° 0 mm 1 mps 740 mmHg 79%
    08:00 -4°C° 0 mm 0 mps 741 mmHg 76%
    09:00 -3°C° 0 mm 0 mps 741 mmHg 72%
    10:00 -2°C° 0 mm 0 mps 741 mmHg 68%
    11:00 -1°C° 0 mm 0 mps 741 mmHg 65%
    12:00 0°C° 0 mm 1 mps 741 mmHg 61%
    13:00 +1°C° 0 mm 1 mps 742 mmHg 57%
    14:00 +1°C° 0 mm 1 mps 742 mmHg 60%
    15:00 0°C° 0 mm 1 mps 742 mmHg 62%
    16:00 0°C° 0 mm 1 mps 742 mmHg 64%
    17:00 -1°C° 0 mm 1 mps 742 mmHg 66%
    18:00 -2°C° 0 mm 1 mps 742 mmHg 67%
    19:00 -2°C° 0 mm 1 mps 742 mmHg 69%
    20:00 -3°C° 0 mm 1 mps 743 mmHg 69%
    21:00 -3°C° 0 mm 1 mps 743 mmHg 69%
    22:00 -3°C° 0 mm 1 mps 744 mmHg 69%
    23:00 -3°C° 0 mm 1 mps 744 mmHg 69%

    Tomorrow, 21 January, Monday

    Time Temperature Precipitation Wind Pressure Humidity
    00:00 -4°C° 0 mm 0 mps 744 mmHg 69%
    01:00 -4°C° 0 mm 0 mps 744 mmHg 69%
    02:00 -4°C° 0 mm 0 mps 744 mmHg 69%
    03:00 -5°C° 0 mm 0 mps 744 mmHg 68%
    04:00 -5°C° 0 mm 0 mps 745 mmHg 68%
    05:00 -5°C° 0 mm 0 mps 745 mmHg 67%
    06:00 -5°C° 0 mm 0 mps 745 mmHg 66%
    07:00 -5°C° 0 mm 0 mps 745 mmHg 66%
    08:00 -4°C° 0 mm 0 mps 745 mmHg 62%
    09:00 -3°C° 0 mm 0 mps 745 mmHg 59%
    10:00 -2°C° 0 mm 0 mps 746 mmHg 55%
    11:00 -1°C° 0 mm 0 mps 745 mmHg 52%
    12:00 0°C° 0 mm 0 mps 745 mmHg 49%
    13:00 +1°C° 0 mm 1 mps 745 mmHg 46%
    14:00 +1°C° 0 mm 1 mps 744 mmHg 49%
    15:00 0°C° 0 mm 1 mps 744 mmHg 53%
    16:00 0°C° 0 mm 1 mps 744 mmHg 57%
    17:00 -1°C° 0 mm 1 mps 744 mmHg 60%
    18:00 -2°C° 0 mm 1 mps 743 mmHg 63%
    19:00 -2°C° 0 mm 1 mps 743 mmHg 66%
    20:00 -5°C° 0 mm 2 mps 743 mmHg 65%
    21:00 -5°C° 0 mm 2 mps 743 mmHg 65%
    22:00 -5°C° 0 mm 2 mps 743 mmHg 64%
    23:00 -5°C° 0 mm 2 mps 742 mmHg 64%

    Day after tomorrow, 22 January, Tuesday

    Time Temperature Precipitation Wind Pressure Humidity
    00:00 -5°C° 0 mm 2 mps 742 mmHg 63%
    01:00 -5°C° 0 mm 2 mps 742 mmHg 63%
    02:00 -5°C° 0 mm 2 mps 741 mmHg 64%
    03:00 -6°C° 0 mm 2 mps 741 mmHg 66%
    04:00 -6°C° 0 mm 2 mps 740 mmHg 68%
    05:00 -6°C° 0 mm 2 mps 740 mmHg 70%
    06:00 -6°C° 0 mm 2 mps 739 mmHg 72%
    07:00 -7°C° 0 mm 3 mps 739 mmHg 74%
    08:00 -6°C° 0 mm 3 mps 739 mmHg 72%
    09:00 -5°C° 0 mm 3 mps 739 mmHg 69%
    10:00 -5°C° 0 mm 3 mps 738 mmHg 66%
    11:00 -4°C° 0 mm 3 mps 738 mmHg 62%
    12:00 -2°C° 0 mm 3 mps 737 mmHg 57%
    13:00 -1°C° 0 mm 3 mps 736 mmHg 53%
    14:00 -2°C° 0 mm 3 mps 736 mmHg 54%
    15:00 -2°C° 0 mm 3 mps 735 mmHg 54%
    16:00 -3°C° 0 mm 2 mps 734 mmHg 55%
    17:00 -4°C° 0 mm 3 mps 734 mmHg 57%
    18:00 -5°C° 0 mm 3 mps 733 mmHg 60%
    19:00 -5°C° 0 mm 3 mps 733 mmHg 63%
    20:00 -5°C° 0 mm 3 mps 732 mmHg 65%
    21:00 -6°C° 0 mm 3 mps 732 mmHg 67%
    22:00 -6°C° 0 mm 3 mps 732 mmHg 69%
    23:00 -5°C° 0 mm 2 mps 731 mmHg 69%

    23 January, Wednesday

    Time Temperature Precipitation Wind Pressure Humidity
    00:00 -5°C° 0 mm 2 mps 731 mmHg 68%
    01:00 -5°C° 0 mm 2 mps 730 mmHg 68%
    02:00 -5°C° 0 mm 2 mps 730 mmHg 71%
    03:00 -4°C° 0 mm 2 mps 729 mmHg 74%
    04:00 -4°C° 0 mm 2 mps 729 mmHg 77%
    05:00 -4°C° 0.2 mm 2 mps 729 mmHg 81%
    06:00 -4°C° 0.2 mm 2 mps 729 mmHg 85%
    07:00 -1°C° 0.2 mm 1 mps 729 mmHg 89%
    08:00 -3°C° 0.1 mm 2 mps 729 mmHg 87%
    09:00 -2°C° 0.1 mm 2 mps 729 mmHg 85%
    10:00 -2°C° 0.1 mm 2 mps 729 mmHg 83%
    11:00 +1°C° 0 mm 1 mps 729 mmHg 81%
    12:00 +1°C° 0 mm 1 mps 729 mmHg 78%
    13:00 +2°C° 0 mm 1 mps 729 mmHg 76%
    14:00 +2°C° 0 mm 1 mps 729 mmHg 79%
    15:00 +1°C° 0 mm 1 mps 729 mmHg 82%
    16:00 0°C° 0 mm 0 mps 729 mmHg 84%
    17:00 -1°C° 0 mm 0 mps 730 mmHg 86%
    18:00 -1°C° 0 mm 0 mps 730 mmHg 88%
    19:00 -1°C° 0 mm 0 mps 730 mmHg 90%
    20:00 -2°C° 0 mm 0 mps 731 mmHg 90%
    21:00 -2°C° 0 mm 0 mps 731 mmHg 91%
    22:00 -2°C° 0 mm 0 mps 731 mmHg 92%
    23:00 -1°C° 0 mm 1 mps 732 mmHg 92%

    24 January, Thursday

    Time Temperature Precipitation Wind Pressure Humidity
    00:00 -1°C° 0 mm 1 mps 732 mmHg 92%
    01:00 -2°C° 0 mm 1 mps 732 mmHg 92%
    02:00 -2°C° 0 mm 1 mps 732 mmHg 90%
    03:00 -2°C° 0 mm 1 mps 732 mmHg 89%
    04:00 -2°C° 0 mm 1 mps 732 mmHg 88%
    05:00 -2°C° 0 mm 1 mps 733 mmHg 86%
    06:00 -3°C° 0 mm 1 mps 733 mmHg 84%
    07:00 -3°C° 0 mm 1 mps 733 mmHg 83%
    08:00 -2°C° 0 mm 1 mps 733 mmHg 79%
    09:00 -2°C° 0 mm 1 mps 734 mmHg 76%
    10:00 -1°C° 0 mm 1 mps 734 mmHg 73%
    11:00 0°C° 0 mm 1 mps 734 mmHg 68%
    12:00 0°C° 0 mm 1 mps 734 mmHg 64%
    13:00 +1°C° 0 mm 1 mps 734 mmHg 60%
    14:00 +1°C° 0 mm 1 mps 734 mmHg 63%
    15:00 0°C° 0 mm 1 mps 734 mmHg 66%
    16:00 0°C° 0 mm 1 mps 734 mmHg 70%
    17:00 -1°C° 0 mm 1 mps 734 mmHg 73%
    18:00 -1°C° 0 mm 1 mps 735 mmHg 76%
    19:00 -3°C° 0 mm 0 mps 735 mmHg 80%
    20:00 -3°C° 0 mm 0 mps 735 mmHg 81%
    21:00 -3°C° 0 mm 0 mps 736 mmHg 83%
    22:00 -3°C° 0 mm 0 mps 736 mmHg 85%
    23:00 -4°C° 0 mm 0 mps 736 mmHg 86%

    25 January, Friday

    Time Temperature Precipitation Wind Pressure Humidity
    00:00 -3°C° 0 mm 1 mps 737 mmHg 88%
    01:00 -3°C° 0 mm 1 mps 737 mmHg 90%
    02:00 -3°C° 0 mm 1 mps 737 mmHg 90%
    03:00 -3°C° 0 mm 1 mps 737 mmHg 91%
    04:00 -3°C° 0 mm 1 mps 737 mmHg 91%
    05:00 -3°C° 0 mm 1 mps 738 mmHg 91%
    06:00 -3°C° 0 mm 1 mps 738 mmHg 90%
    07:00 -5°C° 0 mm 2 mps 739 mmHg 90%
    08:00 -5°C° 0 mm 2 mps 739 mmHg 87%
    09:00 -4°C° 0 mm 2 mps 740 mmHg 83%
    10:00 -4°C° 0 mm 2 mps 740 mmHg 80%
    11:00 -3°C° 0 mm 2 mps 740 mmHg 78%
    12:00 -4°C° 0 mm 3 mps 741 mmHg 76%
    13:00 -2°C° 0 mm 3 mps 741 mmHg 74%
    14:00 -2°C° 0 mm 3 mps 741 mmHg 76%
    15:00 -4°C° 0 mm 3 mps 741 mmHg 78%
    16:00 -4°C° 0 mm 3 mps 742 mmHg 80%
    17:00 -4°C° 0 mm 3 mps 742 mmHg 82%
    18:00 -3°C° 0 mm 2 mps 742 mmHg 85%
    19:00 -4°C° 0 mm 2 mps 743 mmHg 87%
    20:00 -4°C° 0 mm 2 mps 743 mmHg 88%
    21:00 -4°C° 0 mm 2 mps 744 mmHg 88%
    22:00 -4°C° 0 mm 2 mps 744 mmHg 89%
    23:00 -4°C° 0 mm 2 mps 744 mmHg 90%
    Show more